Weather History for Szolnok, Hungary

Change the Weather History Date:

Friday, January 25, 2013

  Actual Average (LHBP) Record (LHBP)
Temperature  
Mean Temperature 29 °F -  
Max Temperature 32 °F 35 °F 50 °F (2002)
Min Temperature 26 °F 22 °F 0 °F (2006)
Degree Days  
Heating Degree Days 36    
Moisture  
Dew Point 19 °F    
Average Humidity 66    
Maximum Humidity 69    
Minimum Humidity 60    
Precipitation  
Precipitation 0.00 in - - ()
Sea Level Pressure  
Sea Level Pressure 29.79 in    
Wind  
Wind Speed 17 mph ()    
Max Wind Speed 25 mph    
Max Gust Speed 38 mph    
Visibility 6.1 miles    
Events Rain    
Averages and records for this station are not official NWS values.
T = Trace of Precipitation, MM = Missing Value Source: Averaged Metar Reports

Daily Weather History Graph

Daily Weather History Graph

Search for Another Location

Airport:

Trip Planner

Search our weather history database for the weather conditions in past years. The results will help you decide how hot, cold, wet, or windy it might be!

Date:

Astronomy

Jan. 25, 2013 Rise Set
Actual Time 7:12 AM CET 4:30 PM CET
Civil Twilight 6:39 AM CET 5:04 PM CET
Nautical Twilight 6:01 AM CET 5:41 PM CET
Astronomical Twilight 5:25 AM CET 6:17 PM CET
Moon 3:10 PM CET (1/25) 5:41 AM CET (1/25)
Length of Visible Light 10h 25m
Length of Day
9h 18m
Waxing Gibbous, 97% of the Moon is Illuminated
Jan 25
Waxing Gibbous
Jan 27
Full
Feb 3
Last Quarter
Feb 10
New
Feb 17
First Quarter

Hourly Weather History & Observations

Time (CET) Temp. Windchill Dew Point Humidity Pressure Visibility Wind Dir Wind Speed Gust Speed Precip Events Conditions
12:15 AM 32.0 °F 21.4 °F 21.2 °F 64% 29.68 in - NNE 15.7 mph - N/A   Clear
12:45 AM 32.0 °F 21.4 °F 21.2 °F 64% 29.68 in - NNE 15.7 mph - N/A   Clear
1:15 AM 30.2 °F 19.1 °F 21.2 °F 69% 29.68 in - NNE 15.7 mph - N/A   Clear
1:45 AM 30.2 °F 18.3 °F 21.2 °F 69% 29.68 in - NNE 17.9 mph 31.3 mph N/A   Clear
2:15 AM 30.2 °F 19.1 °F 21.2 °F 69% 29.71 in - NE 15.7 mph - N/A   Clear
2:45 AM 30.2 °F 19.1 °F 21.2 °F 69% 29.68 in - NNE 15.7 mph - N/A   Clear
3:15 AM 32.0 °F 21.4 °F 21.2 °F 64% 29.68 in - NNE 15.7 mph - N/A   Clear
3:45 AM 30.2 °F 18.3 °F 21.2 °F 69% 29.68 in - NNE 17.9 mph 29.1 mph N/A   Clear
4:15 AM 32.0 °F 20.6 °F 21.2 °F 64% 29.68 in - NNE 17.9 mph 29.1 mph N/A   Clear
4:45 AM 30.2 °F 17.6 °F 21.2 °F 69% 29.68 in - NNE 20.1 mph - N/A   Clear
5:15 AM 32.0 °F 20.6 °F 19.4 °F 60% 29.71 in - NNE 17.9 mph - N/A   Clear
5:45 AM - - - N/A% - - NNE 15.7 mph - N/A   Clear
6:15 AM 32.0 °F 20.6 °F 19.4 °F 60% 29.71 in - NNE 17.9 mph 29.1 mph N/A   Clear
6:45 AM 30.2 °F 18.3 °F 21.2 °F 69% 29.74 in - NNE 17.9 mph - N/A   Clear
7:15 AM 30.2 °F 17.6 °F 21.2 °F 69% 29.74 in - NNE 20.1 mph - N/A   Clear
7:45 AM 30.2 °F 17.6 °F 19.4 °F 64% 29.74 in - NNE 20.1 mph 35.8 mph N/A   Clear
7:49 AM 30.2 °F 17.0 °F 19.4 °F 64% 29.74 in - NNE 22.4 mph 38.0 mph N/A   Clear
8:15 AM 30.2 °F 17.6 °F 21.2 °F 69% 29.77 in - NNE 20.1 mph 31.3 mph N/A   Clear
8:45 AM 30.2 °F 17.6 °F 19.4 °F 64% 29.77 in - NNE 20.1 mph 33.6 mph N/A   Clear
9:15 AM 30.2 °F 16.4 °F 19.4 °F 64% 29.77 in - NNE 24.6 mph - N/A   Clear
9:45 AM 30.2 °F 16.4 °F 19.4 °F 64% 29.80 in - NNE 24.6 mph - N/A   Clear
10:15 AM 30.2 °F 17.0 °F 19.4 °F 64% 29.80 in - NNE 22.4 mph - N/A   Clear
10:45 AM 30.2 °F 17.0 °F 19.4 °F 64% 29.80 in - NNE 22.4 mph 35.8 mph N/A   Clear
11:15 AM 30.2 °F 16.4 °F 19.4 °F 64% 29.80 in - NNE 24.6 mph 35.8 mph N/A   Clear
11:45 AM - - - N/A% - 3.7 mi NNE 20.1 mph 33.6 mph N/A Rain Light Rain Showers
12:15 PM 32.0 °F 18.8 °F 19.4 °F 60% 29.80 in - NNE 24.6 mph - N/A   Clear
12:45 PM 32.0 °F 19.4 °F 19.4 °F 60% 29.80 in - NNE 22.4 mph - N/A   Clear
1:15 PM 30.2 °F 18.3 °F 19.4 °F 64% 29.80 in - NNE 17.9 mph - N/A   Clear
1:45 PM 30.2 °F 18.3 °F 19.4 °F 64% 29.80 in - NNE 17.9 mph - N/A   Clear
2:15 PM 30.2 °F 17.6 °F 17.6 °F 60% 29.80 in - NNE 20.1 mph - N/A   Clear
2:45 PM - - - N/A% - 6.2 mi NNE 20.1 mph 33.6 mph N/A   Overcast
3:15 PM 30.2 °F 19.1 °F 19.4 °F 64% 29.83 in - NNE 15.7 mph - N/A   Clear
3:45 PM 30.2 °F 18.3 °F 17.6 °F 60% 29.86 in - NNE 17.9 mph 29.1 mph N/A   Clear
4:15 PM 28.4 °F 15.9 °F 17.6 °F 64% 29.86 in 6.2 mi NNE 17.9 mph - N/A   Mostly Cloudy
4:45 PM 28.4 °F 15.9 °F 17.6 °F 64% 29.86 in 6.2 mi NNE 17.9 mph - N/A   Mostly Cloudy
5:15 PM 28.4 °F 15.9 °F 17.6 °F 64% 29.89 in 6.2 mi NNE 17.9 mph - N/A   Mostly Cloudy
5:45 PM - - - N/A% - 6.2 mi NNE 17.9 mph 29.1 mph N/A   Overcast
6:15 PM 28.4 °F 15.9 °F 17.6 °F 64% 29.89 in 6.2 mi NNE 17.9 mph - N/A   Mostly Cloudy
6:45 PM 26.6 °F 13.6 °F 17.6 °F 69% 29.89 in 6.2 mi NNE 17.9 mph - N/A   Mostly Cloudy
7:15 PM 26.6 °F 12.9 °F 17.6 °F 69% 29.89 in 6.2 mi NNE 20.1 mph - N/A   Mostly Cloudy
7:45 PM 26.6 °F 12.9 °F 17.6 °F 69% 29.92 in 6.2 mi NNE 20.1 mph - N/A   Mostly Cloudy
8:15 PM 26.6 °F 13.6 °F 17.6 °F 69% 29.92 in 6.2 mi NNE 17.9 mph - N/A   Mostly Cloudy
8:45 PM - - - N/A% - 6.2 mi NNE 17.9 mph 29.1 mph N/A   Overcast
9:15 PM 26.6 °F 15.3 °F 17.6 °F 69% 29.92 in 6.2 mi NNE 13.4 mph - N/A   Mostly Cloudy
9:45 PM 26.6 °F 15.3 °F 17.6 °F 69% 29.92 in 6.2 mi NNE 13.4 mph - N/A   Mostly Cloudy
10:15 PM 26.6 °F 15.3 °F 17.6 °F 69% 29.92 in 6.2 mi NNE 13.4 mph - N/A   Mostly Cloudy
10:45 PM 26.6 °F 15.3 °F 17.6 °F 69% 29.92 in 6.2 mi NNE 13.4 mph - N/A   Mostly Cloudy
11:15 PM 26.6 °F 14.4 °F 17.6 °F 69% 29.92 in 6.2 mi NNE 15.7 mph - N/A   Mostly Cloudy
11:45 PM - - - N/A% - 6.2 mi North - - N/A   Mostly Cloudy